[[{"header":{"parameterUnit":"m.s-1","parameterCategory":1,"la1":30.2991,"la2":30.254,"lo1":-89.0895,"lo2":-89.0444,"dy":0.0017,"dx":0.0017,"nx":28,"ny":28,"refTime":"2023-11-02T09:00:00:Z","depth":0,"parameterNumber":2,"parameterNumberName":"U-component_of_WINDS"},"data":[0,0,0,0,0,0,0,0,0,0,0,0,0,0,0,0,0,0,0,0,0,0,0,0,0,0,0,0,0,0,0,0,0,0,0,0,0,0,0,0,0,0,0,0,0,0,0,0,0,0,0,0,0,0,0,0,0,0,-4.2322,-4.2322,0,-4.2373,-4.2374,-4.2374,-4.2234,-4.2229,-4.2225,-4.2221,-4.2273,-4.2278,-4.2284,0,0,0,0,0,0,0,0,0,0,0,0,0,-4.21,-4.2105,-4.2322,-4.2322,-4.2323,-4.2373,-4.2374,-4.2374,-4.2234,-4.2229,-4.2224,-4.2219,-4.2271,-4.2278,-4.2284,0,0,0,0,0,0,0,0,0,0,0,0,0,-4.2178,-4.2106,-4.2321,-4.2259,-4.2254,-4.2373,-4.2374,-4.2375,-4.2235,-4.2229,-4.2222,-4.2216,-4.2269,-4.2277,-4.2285,-4.2467,0,0,-4.231,-4.2314,0,0,0,0,0,0,0,0,-4.2174,-4.2187,-4.2267,-4.2263,-4.2258,-4.229,-4.2315,-4.2406,-4.2237,-4.2243,-4.2221,-4.2213,-4.2284,-4.2291,-4.2315,-4.2469,-4.2471,-4.2311,-4.2316,-4.2319,-4.2322,0,0,0,0,0,0,0,-4.2169,-4.2184,-4.2342,-4.2269,-4.2263,-4.2228,-4.2232,-4.2331,-4.2299,-4.2241,-4.2231,-4.2239,-4.228,-4.2307,-4.2315,-4.2472,-4.2311,-4.2318,-4.2323,-4.2326,-4.2776,-4.2783,0,0,0,0,0,0,-4.2172,-4.218,-4.234,-4.2343,-4.2199,-4.2237,-4.2241,-4.2287,-4.2298,-4.2293,-4.2245,-4.2233,-4.2296,-4.2305,-4.2316,-4.2527,-4.2319,-4.2327,-4.2332,-4.2769,-4.2778,-4.2785,0,0,0,0,0,0,-4.2167,-4.2187,-4.2338,-4.2259,-4.2275,-4.2248,-4.23,-4.2291,-4.2317,-4.2301,-4.2294,-4.2278,-4.2291,-4.2305,-4.243,-4.2527,-4.2331,-4.2338,-4.2761,-4.2772,-4.2781,-4.2952,0,0,0,0,0,0,-4.2162,-4.2187,-4.2256,-4.2262,-4.228,-4.2452,-4.2306,-4.2297,-4.2332,-4.2317,-4.233,-4.2326,-4.2287,-4.2418,-4.2438,-4.2535,-4.2345,-4.2752,-4.2766,-4.2778,-4.2938,-4.2967,-4.2993,0,0,0,0,0,-4.2154,-4.2302,-4.226,-4.228,-4.2366,-4.2458,-4.2468,-4.2421,-4.2341,-4.2409,-4.2398,-4.2326,-4.2514,-4.2432,-4.2453,-4.2554,-4.2745,-4.2762,-4.2777,-4.2926,-4.2962,-4.2992,0,0,0,0,0,0,-4.2308,-4.2302,-4.2255,-4.2409,-4.2435,-4.2434,-4.2519,-4.2461,-4.251,-4.2493,-4.2432,-4.2437,-4.2573,-4.2576,-4.2485,-4.2729,-4.2616,-4.2637,-4.2722,-4.2756,-4.2783,-4.2778,-4.2351,0,0,0,0,0,-4.236,-4.2435,-4.2426,-4.2563,-4.2578,-4.2547,-4.2585,-4.2546,-4.2571,-4.2581,-4.2579,-4.2605,-4.2669,-4.2713,-4.2772,-4.2939,-4.2938,-4.3018,-4.3046,-4.3068,-4.3086,-4.3172,-4.3207,-4.2837,-4.2837,-4.2837,0,0,-4.2468,-4.2474,-4.2525,-4.2594,-4.2609,-4.2688,-4.2557,-4.2646,-4.2703,-4.2594,-4.2711,-4.2712,-4.2736,-4.2883,-4.2947,-4.289,-4.3189,-4.3089,-4.3107,-4.3112,-4.3192,-4.3227,-4.3258,-4.2848,-4.2846,-4.2844,0,0,-4.2703,-4.2717,-4.2831,-4.285,-4.2875,-4.2853,-4.2881,-4.2889,-4.2884,-4.3001,-4.292,-4.2988,-4.3101,-4.3122,-4.3147,-4.3391,-4.3325,-4.3412,-4.3554,-4.3639,-4.3668,-4.3694,-4.3778,-4.3809,-4.3431,-4.3431,-4.3431,0,-4.2834,-4.2949,-4.2897,-4.2991,-4.3023,-4.2929,-4.3043,-4.3064,-4.3107,-4.3131,-4.3067,-4.3206,-4.3216,-4.3365,-4.3424,-4.3449,-4.3477,-4.3409,-4.3668,-4.3693,-4.3716,-4.3796,-4.3828,-4.3441,-4.344,-4.3439,-4.3438,0,-4.3107,-4.3188,-4.3277,-4.3321,-4.3364,-4.3468,-4.3431,-4.348,-4.3438,-4.3423,-4.3543,-4.3552,-4.361,-4.3644,-4.3604,-4.3787,-4.375,-4.3679,-4.3562,-4.3762,-4.3836,-4.3866,-4.3456,-4.3452,-4.3449,-4.3447,0,0,-4.3438,-4.3453,-4.3486,-4.3504,-4.3525,-4.3586,-4.3686,-4.3743,-4.3785,-4.3819,-4.3899,-4.3998,-4.3931,-4.396,-4.3922,-4.3997,-4.4187,-4.3916,-4.3915,-4.3963,-4.4386,-4.4437,-4.4473,-4.4145,-4.415,-4.4155,-4.4382,0,-4.3668,-4.3838,-4.3795,-4.3964,-4.4037,-4.3949,-4.4036,-4.4058,-4.4047,-4.4107,-4.4095,-4.4164,-4.4073,-4.4089,-4.416,-4.4149,-4.427,-4.4132,-4.4217,-4.4221,-4.421,-4.4512,-4.4567,-4.4781,-4.4411,-4.4416,-4.442,0,-4.3958,-4.4003,-4.4179,-4.4187,-4.4216,-4.4295,-4.4342,-4.4402,-4.4425,-4.4412,-4.4445,-4.4391,-4.4489,-4.4375,-4.4507,-4.4414,-4.4447,-4.4447,-4.4454,-4.4457,-4.433,-4.4521,-4.4848,-4.4879,-4.4465,-4.4462,-4.4458,0,-4.4178,-4.4283,-4.4401,-4.442,-4.4433,-4.449,-4.4498,-4.4514,-4.4551,-4.4594,-4.4616,-4.467,-4.4699,-4.4741,-4.4704,-4.4625,-4.4841,-4.4725,-4.4831,-4.4832,-4.4877,-4.4874,-4.5212,-4.4905,-4.4904,-4.4904,-4.4903,0,-4.4437,-4.4548,-4.45,-4.4572,-4.4693,-4.4643,-4.4763,-4.4761,-4.4777,-4.4847,-4.4776,-4.4843,-4.4791,-4.4853,-4.4825,-4.4937,-4.4952,-4.4942,-4.4933,-4.4947,-4.4948,-4.4965,-4.4947,-4.4912,-4.491,-4.4909,-4.4907,0,-4.4702,-4.4675,-4.4797,-4.48,-4.4803,-4.4892,-4.4894,-4.496,-4.4945,-4.5034,-4.5052,-4.5028,-4.5097,-4.5065,-4.5139,-4.5119,-4.5263,-4.5236,-4.5255,-4.5247,-4.5353,-4.5342,-4.571,-4.5755,-4.5423,-4.5426,-4.5429,0,-4.4867,-4.495,-4.4962,-4.5004,-4.5017,-4.5085,-4.5122,-4.5076,-4.5117,-4.515,-4.5212,-4.5276,-4.5324,-4.544,-4.5428,-4.5483,-4.5454,-4.558,-4.5462,-4.5473,-4.5452,-4.5446,-4.5453,-4.5602,-4.5606,-4.5609,-4.5612,0,-4.5162,-4.5145,-4.5201,-4.5253,-4.5299,-4.5337,-4.537,-4.5408,-4.5363,-4.5413,-4.5483,-4.5521,-4.5596,-4.5659,-4.5708,-4.5715,-4.5656,-4.565,-4.5676,-4.5689,-4.5696,-4.569,-4.5316,-4.564,-4.5637,-4.5635,-4.5634,-4.5633,-4.538,-4.5448,-4.5467,-4.5532,-4.5551,-4.5583,-4.5645,-4.5638,-4.5696,-4.5753,-4.5723,-4.5804,-4.5825,-4.5884,-4.5899,-4.5962,-4.5912,-4.5952,-4.5961,-4.5971,-4.5984,-4.5689,-4.5971,-4.597,-4.597,-4.5969,-4.5968,0,-4.5668,-4.5676,-4.5736,-4.5783,-4.5834,-4.5776,-4.5808,-4.5854,-4.5927,-4.5951,-4.6,-4.6081,-4.6142,-4.6136,-4.6192,-4.6243,-4.6217,-4.6259,-4.6253,-4.6255,-4.6027,-4.5996,-4.6279,-4.6279,-4.6279,-4.6279,-4.6279,-4.6279,-4.5823,-4.5936,-4.5921,-4.6042,-4.6049,-4.6128,-4.6151,-4.618,-4.6199,-4.6292,-4.6342,-4.6338,-4.635,-4.6406,-4.646,-4.6456,-4.6478,-4.653,-4.6516,-4.6302,-4.6271,-4.6242,-4.6213,-4.6536,-4.6537,-4.6739,-4.674,-4.6742]},{"header":{"parameterUnit":"m.s-1","parameterCategory":1,"la1":30.2991,"la2":30.254,"lo1":-89.0895,"lo2":-89.0444,"dy":0.0017,"dx":0.0017,"nx":28,"ny":28,"refTime":"2023-11-02T09:00:00:Z","depth":0,"parameterNumber":3,"parameterNumberName":"V-component_of_WINDS"},"data":[0,0,0,0,0,0,0,0,0,0,0,0,0,0,0,0,0,0,0,0,0,0,0,0,0,0,0,0,0,0,0,0,0,0,0,0,0,0,0,0,0,0,0,0,0,0,0,0,0,0,0,0,0,0,0,0,0,0,-2.2972,-2.2972,0,-2.3021,-2.3022,-2.3022,-2.3028,-2.3028,-2.3027,-2.3027,-2.3075,-2.3076,-2.3078,0,0,0,0,0,0,0,0,0,0,0,0,0,-2.2878,-2.288,-2.2972,-2.2972,-2.2973,-2.3021,-2.3022,-2.3022,-2.3028,-2.3028,-2.3027,-2.3027,-2.3074,-2.3076,-2.3078,0,0,0,0,0,0,0,0,0,0,0,0,0,-2.2922,-2.288,-2.2972,-2.2982,-2.2983,-2.3021,-2.3022,-2.3023,-2.3028,-2.3028,-2.3027,-2.3026,-2.3073,-2.3076,-2.3078,-2.3109,0,0,-2.3086,-2.3087,0,0,0,0,0,0,0,0,-2.292,-2.2926,-2.298,-2.2981,-2.2983,-2.3018,-2.3006,-2.3051,-2.3029,-2.3011,-2.3027,-2.3026,-2.3056,-2.306,-2.3071,-2.3111,-2.3113,-2.3086,-2.3088,-2.3089,-2.309,0,0,0,0,0,0,0,-2.2917,-2.2924,-2.2991,-2.298,-2.2982,-2.2982,-2.2988,-2.3015,-2.3037,-2.3013,-2.3013,-2.3019,-2.3057,-2.3068,-2.3072,-2.3114,-2.3086,-2.3089,-2.309,-2.3091,-2.3178,-2.3179,0,0,0,0,0,0,-2.2912,-2.2921,-2.299,-2.2993,-2.2949,-2.2985,-2.2991,-2.3007,-2.3037,-2.3041,-2.302,-2.3019,-2.3064,-2.3069,-2.3074,-2.3109,-2.3089,-2.3092,-2.3093,-2.3177,-2.3178,-2.3179,0,0,0,0,0,0,-2.291,-2.2918,-2.2988,-2.2957,-2.2966,-2.2987,-2.3006,-2.3009,-2.302,-2.3042,-2.3046,-2.3028,-2.3064,-2.307,-2.3099,-2.3111,-2.3093,-2.3095,-2.3176,-2.3178,-2.3179,-2.3182,0,0,0,0,0,0,-2.2908,-2.2918,-2.2931,-2.2957,-2.2968,-2.3014,-2.3006,-2.301,-2.3025,-2.3025,-2.3051,-2.3054,-2.3064,-2.3096,-2.3102,-2.3114,-2.3097,-2.3175,-2.3177,-2.3178,-2.3181,-2.3183,-2.3185,0,0,0,0,0,-2.2904,-2.293,-2.2931,-2.2939,-2.2984,-2.3015,-2.3021,-2.3032,-2.3026,-2.3038,-2.3052,-2.3053,-2.3109,-2.3099,-2.3106,-2.3119,-2.3175,-2.3177,-2.3178,-2.318,-2.3183,-2.3185,0,0,0,0,0,0,-2.2903,-2.2933,-2.2936,-2.2971,-2.299,-2.3016,-2.3032,-2.3035,-2.3056,-2.3055,-2.3067,-2.3073,-2.3101,-2.3113,-2.3101,-2.3148,-2.3141,-2.3144,-2.314,-2.3143,-2.3145,-2.3141,-2.3099,0,0,0,0,0,-2.2907,-2.2931,-2.2955,-2.2984,-2.2993,-2.3011,-2.3025,-2.3032,-2.3052,-2.306,-2.3076,-2.3095,-2.3116,-2.313,-2.3151,-2.3183,-2.3187,-2.3195,-2.3197,-2.3199,-2.3201,-2.3216,-2.3219,-2.3185,-2.3185,-2.3185,0,0,-2.2915,-2.2935,-2.2949,-2.2984,-2.3,-2.3022,-2.3018,-2.3042,-2.3058,-2.3063,-2.3092,-2.3104,-2.3126,-2.3156,-2.317,-2.3166,-2.3211,-2.3201,-2.3202,-2.3203,-2.3218,-2.3221,-2.3224,-2.3186,-2.3186,-2.3185,0,0,-2.2942,-2.296,-2.2984,-2.3,-2.3024,-2.3035,-2.3041,-2.3066,-2.3074,-2.3103,-2.3107,-2.3125,-2.3163,-2.3177,-2.319,-2.3219,-2.322,-2.3225,-2.3236,-2.325,-2.3253,-2.3255,-2.3264,-2.3267,-2.3228,-2.3228,-2.3228,0,-2.2949,-2.2984,-2.2996,-2.302,-2.3034,-2.304,-2.3064,-2.3078,-2.3108,-2.3117,-2.3113,-2.3158,-2.3174,-2.3206,-2.3213,-2.3223,-2.3228,-2.3222,-2.3252,-2.3254,-2.3257,-2.3265,-2.3269,-2.3228,-2.3228,-2.3228,-2.3228,0,-2.299,-2.3014,-2.3031,-2.3059,-2.3075,-2.3099,-2.3113,-2.3128,-2.3133,-2.3144,-2.3172,-2.319,-2.3214,-2.3222,-2.3227,-2.3254,-2.3251,-2.325,-2.3242,-2.326,-2.3268,-2.3272,-2.3229,-2.3228,-2.3228,-2.3228,0,0,-2.3018,-2.3052,-2.3058,-2.307,-2.3096,-2.3114,-2.3137,-2.3161,-2.3172,-2.3191,-2.321,-2.324,-2.3238,-2.3252,-2.3258,-2.3271,-2.3291,-2.3268,-2.3268,-2.327,-2.332,-2.332,-2.3324,-2.3292,-2.3293,-2.3293,-2.3317,0,-2.3046,-2.3089,-2.3099,-2.3134,-2.3155,-2.316,-2.3179,-2.3196,-2.3207,-2.3225,-2.3236,-2.3256,-2.3253,-2.3261,-2.3274,-2.3286,-2.3301,-2.3284,-2.3307,-2.3308,-2.3301,-2.3328,-2.333,-2.3352,-2.3321,-2.3321,-2.3322,0,-2.3086,-2.3106,-2.3143,-2.3164,-2.3173,-2.3191,-2.3212,-2.323,-2.3249,-2.3255,-2.327,-2.3274,-2.3296,-2.3288,-2.3317,-2.3305,-2.3315,-2.3322,-2.3323,-2.3325,-2.3316,-2.333,-2.3359,-2.3362,-2.3327,-2.3327,-2.3326,0,-2.31,-2.3137,-2.3163,-2.3173,-2.32,-2.3211,-2.3222,-2.324,-2.3253,-2.3271,-2.328,-2.33,-2.3311,-2.3326,-2.3335,-2.3328,-2.3363,-2.3356,-2.3367,-2.3367,-2.3374,-2.3373,-2.3404,-2.3382,-2.3382,-2.3382,-2.3382,0,-2.313,-2.3152,-2.317,-2.3186,-2.321,-2.3221,-2.3244,-2.3255,-2.3271,-2.3288,-2.3293,-2.3309,-2.3321,-2.3337,-2.3345,-2.3367,-2.3372,-2.3376,-2.3378,-2.3376,-2.3375,-2.3382,-2.338,-2.3383,-2.3382,-2.3382,-2.3382,0,-2.3151,-2.3164,-2.3193,-2.3214,-2.322,-2.3237,-2.3255,-2.327,-2.3279,-2.3301,-2.3306,-2.3321,-2.3341,-2.3352,-2.3377,-2.3382,-2.3406,-2.3407,-2.34,-2.34,-2.3411,-2.3409,-2.3446,-2.3451,-2.3426,-2.3427,-2.3427,0,-2.3169,-2.3186,-2.3209,-2.3221,-2.3232,-2.3252,-2.3265,-2.3276,-2.3289,-2.331,-2.3321,-2.3342,-2.3358,-2.3389,-2.3401,-2.342,-2.3421,-2.3433,-2.3424,-2.342,-2.3419,-2.3418,-2.3419,-2.3434,-2.3434,-2.3434,-2.3435,0,-2.3199,-2.3204,-2.3223,-2.3243,-2.3258,-2.3275,-2.3291,-2.3301,-2.3314,-2.3328,-2.3348,-2.3361,-2.3386,-2.3405,-2.3424,-2.3434,-2.3436,-2.3437,-2.3441,-2.3438,-2.3433,-2.3434,-2.3403,-2.3436,-2.3436,-2.3436,-2.3436,-2.3436,-2.3218,-2.3232,-2.325,-2.327,-2.3284,-2.3298,-2.3313,-2.3324,-2.3342,-2.3363,-2.3368,-2.3389,-2.3405,-2.343,-2.3441,-2.3456,-2.3454,-2.3459,-2.346,-2.3461,-2.3461,-2.3431,-2.346,-2.346,-2.346,-2.346,-2.346,0,-2.3246,-2.3258,-2.3276,-2.3299,-2.3314,-2.3315,-2.3333,-2.3345,-2.3364,-2.3379,-2.3395,-2.3417,-2.3435,-2.3448,-2.3466,-2.3476,-2.3477,-2.348,-2.3479,-2.3481,-2.3463,-2.3457,-2.3479,-2.3479,-2.3479,-2.3479,-2.3479,-2.3479,-2.3263,-2.3287,-2.3294,-2.3324,-2.3335,-2.3356,-2.3366,-2.3378,-2.339,-2.3415,-2.343,-2.3439,-2.3452,-2.3471,-2.3487,-2.349,-2.3496,-2.3499,-2.3502,-2.3485,-2.3483,-2.3481,-2.3476,-2.3501,-2.3501,-2.3519,-2.3519,-2.3519]}]]